{"data":{"norad_id":69037,"intl_designator":"2026-101N","name":"STARLINK-37608","alt_names":[],"object_type":"PAYLOAD","status":"ACTIVE","operator":null,"country":"US","launch_date":"2026-05-06","launch_site_code":"AFWTR","launch_vehicle":null,"mission":null,"orbit_class":"UNKNOWN","rcs_meters":null,"size_class":null,"mass_kg":null,"dimensions":null,"purposes":["comms"],"wikipedia_slug":null,"has_3d_model":false,"image_url":null,"decayed_at":null,"tle_current":{"epoch":"2026-05-24T13:40:49.512000Z","epoch_age_seconds":106101,"freshness":"FRESH","line1":"1 69037U 26101N   26144.57001750 -.00732339  00000+0 -55474-2 0  9992","line2":"2 69037  97.2844 359.3073 0002304 105.5036 254.6484 15.74321459  2927","mean_motion":15.74321459,"eccentricity":0.0002304,"inclination_deg":97.2844,"raan_deg":359.3073,"arg_perigee_deg":105.5036,"mean_anomaly_deg":254.6484,"bstar":-0.0055474,"rev_number":292,"period_min":91.467977633658,"perigee_km":345.01337130321,"apogee_km":348.11211294438,"semimajor_km":6724.6997421238,"source":"CELESTRAK","updated_at":"2026-05-25T13:38:22.081831Z"}}}